Location: S�tio Afonso Gruber
(26.1760°S, 49.5250°W)
Time: 00:32:38
(UTC+00:00)

Intelsat 5-3 Rocket - Pass Details

Date: 10 October 2020
Orbit: 281 x 6111 km, 23.6° (Epoch: 22 October)

Event Time Altitude Azimuth Distance (km) Brightness Sun altitude
Exits shadow 03:17:17 37° 73° (ENE) 5,697 7.1 -56.9°
Drops below altitude 10° 03:35:34 10° 76° (ENE) 9,234 8.4 -56.2°
Sets 03:44:53 0° 76° (ENE) 10,652 8.9 -55.6°
